TimeEST,TemperatureF,Dew PointF,Humidity,Sea Level PressureIn,VisibilityMPH,Wind Direction,Wind SpeedMPH,Gust SpeedMPH,PrecipitationIn,Events,Conditions,WindDirDegrees,DateUTC
12:54 AM,26.1,21.9,84,30.10,3.0,WNW,10.4,-,0.00,Snow,Light Snow,290,2014-02-26 05:54:00
1:01 AM,26.1,21.9,84,30.08,2.5,WNW,9.2,-,0.00,Snow,Light Snow,300,2014-02-26 06:01:00
1:17 AM,25.0,21.9,88,30.08,2.0,WNW,11.5,-,0.00,Snow,Light Snow,290,2014-02-26 06:17:00
1:27 AM,25.0,21.9,88,30.07,1.5,WNW,11.5,-,0.00,Snow,Light Snow,290,2014-02-26 06:27:00
1:38 AM,25.0,21.0,85,30.07,2.0,WNW,11.5,-,0.01,Snow,Light Snow,290,2014-02-26 06:38:00
1:43 AM,25.0,19.9,81,30.07,2.5,WNW,11.5,-,0.01,Snow,Light Snow,300,2014-02-26 06:43:00
1:54 AM,24.1,19.9,84,30.10,2.0,WNW,10.4,-,0.01,Snow,Light Snow,300,2014-02-26 06:54:00
2:03 AM,24.1,21.0,88,30.08,1.5,WNW,10.4,-,0.00,Snow,Light Snow,300,2014-02-26 07:03:00
2:16 AM,24.1,19.0,81,30.08,2.0,NW,11.5,-,0.00,Snow,Light Snow,310,2014-02-26 07:16:00
2:27 AM,23.0,19.0,85,30.08,2.5,NW,10.4,-,0.00,Snow,Light Snow,310,2014-02-26 07:27:00
2:54 AM,23.0,19.0,85,30.10,2.5,WNW,8.1,-,0.01,Snow,Light Snow,300,2014-02-26 07:54:00
3:10 AM,23.0,19.0,85,30.07,4.0,WNW,9.2,-,0.00,Snow,Light Snow,290,2014-02-26 08:10:00
3:54 AM,24.1,17.1,75,30.10,10.0,NW,10.4,-,0.00,,Overcast,310,2014-02-26 08:54:00
4:54 AM,23.0,17.1,78,30.12,5.0,WNW,9.2,-,0.00,Snow,Light Snow,300,2014-02-26 09:54:00
5:36 AM,23.0,16.0,74,30.09,9.0,WNW,10.4,-,0.00,Snow,Light Snow,300,2014-02-26 10:36:00
5:54 AM,23.0,17.1,78,30.14,8.0,WNW,9.2,-,0.00,Snow,Light Snow,300,2014-02-26 10:54:00
6:32 AM,21.0,15.1,78,30.12,4.0,NNW,12.7,-,0.00,Snow,Light Snow,340,2014-02-26 11:32:00
6:54 AM,19.9,10.9,68,30.16,9.0,NNW,13.8,-,0.00,,Overcast,330,2014-02-26 11:54:00
7:54 AM,18.0,1.9,50,30.18,10.0,NNW,13.8,20.7,N/A,,Overcast,330,2014-02-26 12:54:00
8:54 AM,18.0,1.9,50,30.20,10.0,NNW,13.8,-,N/A,,Clear,340,2014-02-26 13:54:00
9:54 AM,18.0,3.9,54,30.20,10.0,NW,10.4,-,N/A,,Clear,320,2014-02-26 14:54:00
10:54 AM,19.9,3.9,50,30.18,10.0,NNW,8.1,-,N/A,,Clear,340,2014-02-26 15:54:00
11:54 AM,21.0,5.0,50,30.17,10.0,NW,8.1,-,N/A,,Clear,320,2014-02-26 16:54:00
12:54 PM,23.0,6.1,48,30.14,10.0,North,8.1,-,N/A,,Clear,360,2014-02-26 17:54:00
1:54 PM,25.0,6.1,45,30.10,10.0,North,8.1,-,N/A,,Clear,350,2014-02-26 18:54:00
2:54 PM,25.0,3.9,41,30.07,10.0,West,5.8,-,N/A,,Clear,270,2014-02-26 19:54:00
3:54 PM,27.0,3.0,36,30.03,10.0,NW,9.2,-,N/A,,Clear,320,2014-02-26 20:54:00
4:54 PM,25.0,3.9,41,30.01,10.0,West,4.6,-,N/A,,Clear,270,2014-02-26 21:54:00
5:54 PM,25.0,3.9,41,30.00,10.0,West,6.9,-,N/A,,Clear,280,2014-02-26 22:54:00
6:54 PM,21.9,3.9,46,30.00,10.0,WNW,5.8,-,N/A,,Clear,290,2014-02-26 23:54:00
7:54 PM,19.9,5.0,52,30.00,10.0,West,4.6,-,N/A,,Clear,270,2014-02-27 00:54:00
8:54 PM,19.9,7.0,57,29.97,10.0,SW,5.8,-,N/A,,Clear,220,2014-02-27 01:54:00
9:54 PM,18.0,7.0,62,29.96,10.0,SW,8.1,-,N/A,,Clear,230,2014-02-27 02:54:00
10:54 PM,19.0,6.1,57,29.97,10.0,WSW,11.5,-,N/A,,Clear,240,2014-02-27 03:54:00
11:54 PM,18.0,6.1,60,29.96,10.0,WSW,9.2,-,N/A,,Clear,250,2014-02-27 04:54:00